EW8868 Weather Reports


time (UTC)temp
F
wind
direction
speed
knots
gust
knots
rain 1hr
in
rain 24hr
in
rain mn
in
humidity
%
barometer
mb
20260906113048 73 198 0.0 0.0 0.00 0.00 0.00 100 1011.1
20260906111547 73 198 0.0 0.0 0.00 0.00 0.00 100 1011.2
20260906110038 73 198 0.0 0.0 0.00 0.00 0.00 100 1011.1
20260906104537 73 198 0.0 0.0 0.00 0.00 0.00 100 1011.0
20260906103030 73 198 0.0 0.0 0.00 0.00 0.00 100 1011.0
20260906101533 73 198 0.0 0.0 0.00 0.00 0.00 100 1011.2
20260906100030 73 198 0.0 0.0 0.00 0.00 0.00 100 1011.6
20260906094517 73 198 0.0 0.0 0.00 0.00 0.00 100 1011.9
20260906093015 74 198 0.0 0.0 0.00 0.00 0.00 100 1011.5
20260906091508 75 198 0.0 0.0 0.00 0.00 0.00 100 1011.2
20260906090004 75 198 0.0 0.0 0.00 0.00 0.00 100 1010.9
20260906084601 75 198 0.0 0.0 0.00 0.00 0.00 100 1010.8
20260906083102 75 198 0.0 0.0 0.00 0.00 0.00 100 1010.7
20260906081551 76 198 0.0 0.0 0.00 0.00 0.00 100 1010.6
20260906080048 76 198 0.0 0.0 0.00 0.00 0.00 100 1010.7
20260906074542 75 198 0.0 0.0 0.00 0.00 0.00 100 1010.9
20260906073038 75 198 0.0 0.0 0.00 0.00 0.00 100 1010.9
20260906071534 76 198 0.0 0.0 0.00 0.00 0.00 100 1010.7
20260906070029 75 198 0.0 0.0 0.00 0.00 0.00 100 1010.7
20260906064527 75 198 0.0 0.0 0.00 0.00 0.00 100 1010.7
20260906063020 75 198 0.0 0.0 0.00 0.00 0.00 100 1010.9
20260906061516 76 198 0.0 0.0 0.00 0.00 0.00 100 1011.2
20260906060016 76 198 0.0 0.0 0.00 0.00 0.00 100 1011.1
20260906054507 75 198 0.0 0.0 0.00 0.00 0.00 100 1011.2
20260906053003 75 198 0.0 0.0 0.00 0.00 0.00 100 1011.1
20260906051600 74 198 0.0 0.0 0.00 0.00 0.00 100 1011.1
20260906050054 74 198 0.0 0.0 0.00 0.00 0.00 100 1011.3
20260906044550 74 198 0.0 0.0 0.00 0.00 0.00 100 1011.5
20260906043047 74 198 0.0 0.0 0.00 0.00 0.00 100 1011.5
20260906041542 74 198 0.0 0.0 0.00 0.00 0.00 100 1011.5
20260906040037 74 198 0.0 0.0 0.00 0.00 0.00 100 1011.5
20260906034551 74 198 0.0 0.0 0.00 0.00 0.00 100 1011.7
20260906033032 76 198 0.0 0.0 0.00 0.00 0.00 100 1011.5
20260906031529 79 212 0.0 0.0 0.00 0.00 0.00 100 1011.5
20260906030019 81 23 0.0 0.0 0.00 0.00 0.00 100 1012.3
20260906024515 81 198 0.0 0.0 0.00 0.00 0.00 100 1011.4
20260906023012 82 198 0.0 0.0 0.00 0.00 0.00 100 1011.1
20260906021507 83 198 0.0 0.0 0.00 0.00 0.00 100 1011.1
20260906020002 83 198 0.0 0.0 0.00 0.00 0.00 100 1010.9
20260906014558 83 198 0.0 0.0 0.00 0.00 0.00 100 1010.7
20260906013054 84 198 0.0 0.0 0.00 0.00 0.00 100 1010.4
20260906011550 84 198 0.0 0.0 0.00 0.00 0.00 100 1010.1
20260906010059 85 198 0.0 0.0 0.00 0.00 0.00 3 1009.6
20260906004552 85 204 0.0 0.0 0.00 0.00 0.00 9 1009.3
20260906003036 85 204 0.0 0.0 0.00 0.00 0.00 100 1009.4
20260906001546 87 204 0.0 0.0 0.00 0.00 0.00 100 1009.1
20260906000027 89 204 0.0 0.0 0.00 0.00 0.00 4 1009.3
20260905234522 90 204 0.0 0.0 0.00 0.00 0.00 30 1009.3
20260905233021 92 204 0.0 0.0 0.00 0.00 0.00 43 1009.3
20260905231517 92 204 0.0 0.0 0.00 0.00 0.00 59 1009.2
20260905230009 93 204 0.0 0.0 0.00 0.00 0.00 59 1009.2
20260905224506 93 204 0.0 0.0 0.00 0.00 0.00 58 1009.1
20260905223004 93 204 0.0 0.0 0.00 0.00 0.00 57 1009.0
20260905221601 94 204 0.0 0.0 0.00 0.00 0.00 57 1009.0
20260905220052 94 204 0.0 0.0 0.00 0.00 0.00 56 1009.1
20260905214549 94 204 0.0 0.0 0.00 0.00 0.00 57 1009.0
20260905213048 94 204 0.0 0.0 0.00 0.00 0.00 57 1009.1
20260905211539 94 204 0.0 0.0 0.00 0.00 0.00 56 1009.3
20260905210045 94 204 0.0 0.0 0.00 0.00 0.00 56 1009.3
20260905204533 95 204 0.0 0.0 0.00 0.00 0.00 56 1009.4
20260905203026 95 203 0.0 0.0 0.00 0.00 0.00 55 1009.7
20260905201526 95 217 0.0 0.0 0.00 0.00 0.00 54 1009.7
20260905200021 95 217 0.0 0.0 0.00 0.00 0.00 53 1009.9
20260905194513 96 217 0.0 0.0 0.00 0.00 0.00 54 1010.0
20260905193016 96 217 0.0 0.0 0.00 0.00 0.00 55 1010.4
20260905191504 97 324 0.0 0.0 0.00 0.00 0.00 52 1010.5
20260905190100 96 272 0.0 0.0 0.00 0.00 0.00 53 1010.8
20260905184605 95 272 0.0 0.0 0.00 0.00 0.00 55 1010.9
20260905183052 94 11 0.0 0.0 0.00 0.00 0.00 56 1011.2
20260905181549 93 11 0.0 0.0 0.00 0.00 0.00 57 1011.5
20260905180044 95 11 0.0 0.0 0.00 0.00 0.00 55 1011.7
20260905174538 95 80 0.0 0.0 0.00 0.00 0.00 55 1012.0
20260905173043 95 165 0.0 0.0 0.00 0.00 0.00 55 1012.1
20260905171531 94 55 0.0 0.0 0.00 0.00 0.00 54 1012.3
20260905170025 93 56 0.0 0.0 0.00 0.00 0.00 54 1012.5
20260905164522 93 55 0.0 0.0 0.00 0.00 0.00 53 1012.7
20260905163017 92 49 0.0 0.0 0.00 0.00 0.00 52 1012.8
20260905161514 92 260 0.0 0.0 0.00 0.00 0.00 51 1012.9
20260905160007 91 260 0.0 0.0 0.00 0.00 0.00 49 1013.0
20260905154503 90 260 0.0 0.0 0.00 0.00 0.00 43 1013.0
20260905153101 89 254 0.0 0.0 0.00 0.00 0.00 37 1013.1
20260905151609 88 254 0.0 0.0 0.00 0.00 0.00 26 1013.2
20260905150051 86 254 0.0 0.0 0.00 0.00 0.00 4 1013.2
20260905144548 83 59 0.0 0.0 0.00 0.00 0.00 100 1013.3
20260905143042 81 59 0.0 0.0 0.00 0.00 0.00 100 1013.4
20260905141538 79 59 0.0 0.0 0.00 0.00 0.00 100 1013.3
20260905140034 78 59 0.0 0.0 0.00 0.00 0.00 100 1013.5
20260905134536 77 59 0.0 0.0 0.00 0.00 0.00 100 1013.6
20260905133024 76 59 0.0 0.0 0.00 0.00 0.00 100 1013.7
20260905131520 75 59 0.0 0.0 0.00 0.00 0.00 100 1013.8
20260905130017 74 59 0.0 0.0 0.00 0.00 0.00 100 1013.8
20260905124515 73 59 0.0 0.0 0.00 0.00 0.00 100 1013.7
20260905123027 72 59 0.0 0.0 0.00 0.00 0.00 100 1013.7
20260905121502 72 59 0.0 0.0 0.00 0.00 0.00 100 1013.6
20260905120059 72 59 0.0 0.0 0.00 0.00 0.00 100 1013.4
20260905114554 72 59 0.0 0.0 0.00 0.00 0.00 100 1013.4